Showing default

ALSAT 2B, 41786

Orbit data source: Space-Track

ALSAT 2B, 41786 is a payload satellite owned by ASAL (DZ) in SSO that was launched on Mon, 26 Sep 2016 UTC via a PSLV launch vehicle from the Sirharikota (SRI). Payload-class satellites include a variety of spacecraft equipped with specific instruments for various scientific and technological missions. These include communications satellites like Starlink; space stations such as the ISS; scientific satellites like the Hubble; Earth observation satellites from companies like Planet Labs, Umbra, and HawkEye 360; GPS; miniature CubeSats for education and research; and military/defense satellites.

Loading next visibility...
Identifier
41786, 2016-059D
Orbit
SSO
Country
Flag of DZDZ / ALG
Related business
Manufacturer
Airbus/Toulouse
Mission
Operational Civil Imaging
Bus & Motor
MYRIADE, AOCS
Mass
117 kg wet, 117 kg dry
Launch date (UTC)
2016-09-26 (10 years ago)
Launch vehicle
PSLV
Launch site
Sirharikota (SRI)
Object type
Payload
Rocket body
Debris
Shape & HBR
Box + 1 Pan, 0.9 m
Radar Cross Section
0.912 m², Medium (>0.1 m² and < 1m²)

Expand to show TLE details & history
Last TLE update: 7 hours ago

TLE from 7 hours ago
0 ALSAT 2B
1 41786U 16059D   26095.28255934  .00001833  00000-0  30827-3 0  9995
2 41786  97.9959 158.9396 0002180  90.4365 269.7092 14.70781029510050
Epoch: 2026-04-05T06:46Z
TLE epoch observation values (Epoch: 2026-04-05T06:46:53.126Z)
Latitude
0.00001°
Longitude
-136.37197°
Altitude
661.59 km
Speed
7.526 km/s
True Right ascension
10h 35m 45s
True Declination
0° 00' 00"
Sunlit
Object was in full shadow at epoch
Visualization orbit readout
Latitude
Unknown
Longitude
Unknown
Altitude
Unknown
Speed
Unknown
Apparent Right ascension
Unknown
Apparent Declination
Unknown
Sunlit
N/A
Visualization observer readout
Local Sidereal Time
19:27:03
Azimuth
Unknown
Elevation
Unknown
Doppler factor
Unknown
Orbital elements
Apogee altitude
657.167 km
Perigee altitude
654.1 km
Semi-major axis
7,033.77 km
Eccentricity
0.00022
Inclination
97.9959°
RAAN
158.9396°
Arg. of periapsis
90.4365°
True anomaly
269.68422°
Mean anomaly
269.7092°
Eccentric anomaly
269.69671°
Mean motion
3.67926 °/min
Orbital period
97.85 mins
BSTAR
0.00030827
Loading maneuver chart data...
Computing Atmospheric mass density...
Loading historical data...
Loading historical data...
Loading historical data...
Loading historical data...
Loading historical data...
Loading historical data...
Loading historical data...

Documentation

Showing up to 5 results
|